EW1334 Weather Reports


time (UTC)temp
C
wind
direction
speed
KPH
gust
KPH
rain 1hr
cm
rain 24hr
cm
rain mn
cm
humidity
%
barometer
mb
20260504220043 13 145 0.0 3.2 0.00 0.00 0.00 65 1011.0
20260504214542 13 89 0.0 3.2 0.00 0.00 0.00 64 1011.1
20260504213043 14 234 0.0 1.6 0.00 0.00 0.00 62 1011.0
20260504211606 15 124 0.0 1.6 0.00 0.00 0.00 61 1011.0
20260504210045 15 206 0.0 1.6 0.00 0.00 0.00 59 1011.1
20260504204539 16 178 0.0 3.2 0.00 0.00 0.00 56 1011.0
20260504203038 16 269 0.0 3.2 0.00 0.00 0.00 54 1011.0
20260504201538 17 46 0.0 3.2 0.00 0.00 0.00 52 1010.8
20260504200038 18 284 1.6 6.4 0.00 0.00 0.00 50 1010.8
20260504194545 17 314 3.2 4.8 0.00 0.00 0.00 51 1010.7
20260504193037 19 331 1.6 4.8 0.00 0.00 0.00 47 1010.6
20260504191537 20 46 0.0 1.6 0.00 0.00 0.00 43 1010.5
20260504190043 21 178 0.0 4.8 0.00 0.00 0.00 41 1010.5
20260504184545 21 245 1.6 6.4 0.00 0.00 0.00 39 1010.5
20260504183033 22 236 4.8 9.7 0.00 0.00 0.00 38 1010.4
20260504181536 22 221 4.8 11.3 0.00 0.00 0.00 37 1010.2
20260504180033 23 202 1.6 6.4 0.00 0.00 0.00 36 1010.1
20260504174532 23 237 3.2 8.0 0.00 0.00 0.00 34 1010.1
20260504173030 24 238 4.8 11.3 0.00 0.00 0.00 32 1010.0
20260504171531 25 250 3.2 11.3 0.00 0.00 0.00 31 1010.0
20260504081526 22 337 12.9 29.0 0.00 0.00 0.00 33 1013.0
20260504044527 15 229 8.0 19.3 0.00 0.00 0.00 45 1013.1
20260504043027 15 191 4.8 14.5 0.00 0.00 0.00 47 1013.0
20260504041530 13 239 6.4 12.9 0.00 0.00 0.00 49 1013.0
20260504040014 13 215 3.2 8.0 0.00 0.00 0.00 51 1013.0
20260504034509 12 199 1.6 8.0 0.00 0.00 0.00 53 1013.1
20260504033006 12 208 3.2 9.7 0.00 0.00 0.00 54 1013.1
20260504031505 11 200 4.8 8.0 0.00 0.00 0.00 56 1013.0
20260504030001 11 213 3.2 8.0 0.00 0.00 0.00 58 1013.1
20260504024605 11 175 3.2 8.0 0.00 0.00 0.00 60 1013.1
20260504023059 11 178 1.6 6.4 0.00 0.00 0.00 60 1013.1
20260504021558 11 193 1.6 4.8 0.00 0.00 0.00 59 1013.1
20260504020110 11 187 1.6 4.8 0.00 0.00 0.00 60 1013.2
20260504014556 12 145 1.6 4.8 0.00 0.00 0.00 58 1013.1
20260504013057 12 165 1.6 3.2 0.00 0.00 0.00 56 1013.1
20260504011554 12 210 1.6 4.8 0.00 0.00 0.00 56 1013.3
20260504010055 12 195 1.6 6.4 0.00 0.00 0.00 55 1013.2
20260504004554 13 220 3.2 6.4 0.00 0.00 0.00 55 1013.1
20260504003053 13 232 1.6 6.4 0.00 0.00 0.00 55 1013.1
20260504001555 12 186 3.2 6.4 0.00 0.00 0.00 56 1013.2
20260504000051 12 199 1.6 4.8 0.00 0.00 0.00 56 1013.1
20260503234605 11 206 1.6 6.4 0.00 0.00 0.00 60 1013.2
20260503233049 10 46 0.0 3.2 0.00 0.00 0.00 62 1013.2
20260503231545 10 117 0.0 4.8 0.00 0.00 0.00 63 1013.3
20260503230042 10 117 0.0 1.6 0.00 0.00 0.00 60 1013.4
20260503224539 11 89 1.6 3.2 0.00 0.00 0.00 58 1013.3
20260503223036 11 135 0.0 3.2 0.00 0.00 0.00 58 1013.5
20260503221536 12 223 0.0 1.6 0.00 0.00 0.00 56 1013.5